Location: Altoona
(40.5167°N, 78.4000°W)
Time: 18:21:03
(UTC-04:00)

Cosmos 1844 Rocket - Pass Details

Date: 21 August 2017
Orbit: 823 x 846 km, 71.0° (Epoch: 22 September)

Event Time Altitude Azimuth Distance (km) Brightness Sun altitude
Rises 23:02:37 0° 332° (NNW) 3,414 7.0 -29.2°
Reaches altitude 10° 23:05:06 10° 329° (NNW) 2,475 6.0 -29.5°
Enters shadow 23:10:22 57° 265° (W) 994 3.1 -30.1°
